Preview of NWS' New Version of Forecast
This preview is not operational and should not be used for support decisions.

Regional Weather Roundup (RWR)

Issued by National Weather Service (NWS)

                            
000
ASUS43 KBIS 161002
RWRND 

NORTH DAKOTA REGIONAL WEATHER ROUNDUP
NATIONAL WEATHER SERVICE BISMARCK ND
500 AM CDT MON SEP 16 2019

NOTE: "FAIR" INDICATES FEW OR NO CLOUDS BELOW 12,000 FEET WITH NO
SIGNIFICANT WEATHER AND/OR OBSTRUCTIONS TO VISIBILITY.


NDZ001>003-009>011-017-161100-
NORTHWEST NORTH DAKOTA
  
CITY           SKY/WX    TMP DP  RH WIND       PRES   REMARKS
WILLISTON      FAIR      55  52  89 CALM      29.73S                  
MINOT          CLEAR     53  52  96 NW3       29.74S                  
MINOT AFB      CLEAR     52  51  97 CALM      29.73F                  
$$
 
NDZ018>021-031>035-040>046-161100-
SOUTHWEST NORTH DAKOTA
  
CITY           SKY/WX    TMP DP  RH WIND       PRES   REMARKS
BISMARCK       FAIR      61  59  93 E5        29.75F                  
DICKINSON      FAIR      55  52  89 CALM      29.75S                  
GARRISON         N/A     55  55 100 E3        29.74F                  
HETTINGER ARPT FAIR      47  47 100 CALM      29.78F                  
$$
 
NDZ004>008-012>016-024-026-027-054-161100-
NORTHEAST NORTH DAKOTA
  
CITY           SKY/WX    TMP DP  RH WIND       PRES   REMARKS
GRAND FORKS    FAIR      66  61  84 S9        29.81F                  
GRND FRKS AFB  FAIR      64  64 100 S7        29.82F                  
DEVILS LAKE    FAIR      62  61  96 SE7       29.80S                  
$$
 
NDZ022-023-025-028>030-036>039-047>053-161100-
SOUTHEAST NORTH DAKOTA
  
CITY           SKY/WX    TMP DP  RH WIND       PRES   REMARKS
FARGO          FAIR      68  64  87 SE15G23   29.84F                  
JAMESTOWN      CLEAR     66  64  93 S15       29.79S                  
$$